Temp
18 18 18 19 19 20 21 21 21 22 23 24 24 25 25 26 27 27 27 28 28 28 28 26 26 28 29 31 32 33 34 33 33 32 30 30 30 27 26 23 23 23 20 17 17
18 18 19 19 19 20 20 21 21 22 22 23 24 24 25 26 27 27 28 28 28 28 27 29 31 31 32 34 34 34 34 33 34 32 31 30 30 28 28 25 21 20 18 18 17
18 18 18 19 19 20 20 21 21 22 22 23 24 24 25 26 27 30 29 29 29 28 28 29 30 32 34 34 34 35 34 34 32 31 31 30 29 29 29 27 23 20 17 17 17
17 18 18 18 19 20 20 21 21 21 22 23 23 24 24 25 30 29 29 29 29 29 27 30 31 33 35 35 34 34 34 33 32 31 31 30 30 29 28 27 24 21 19 17 17
16 17 18 18 18 19 20 20 21 21 22 22 23 23 24 25 28 29 28 28 29 29 28 30 32 34 35 35 35 34 34 32 31 31 30 30 29 28 26 24 23 20 19 18 18
15 15 16 17 18 19 19 20 21 21 22 22 22 23 23 27 28 27 28 27 28 28 29 30 32 33 34 35 35 34 33 32 31 31 30 30 29 28 25 23 21 20 20 19 19
14 15 15 16 17 18 19 19 20 21 21 22 22 22 22 27 27 27 27 28 29 29 30 31 32 33 34 35 34 34 34 33 33 32 32 31 31 28 25 23 21 20 19 19 19
14 14 15 15 16 17 18 19 20 21 21 22 22 21 24 27 27 27 28 28 28 29 30 31 31 32 34 34 35 35 35 33 33 33 32 32 30 29 26 24 23 22 20 20 19
13 14 15 15 16 17 18 19 20 21 21 21 21 21 26 26 26 27 28 29 29 29 30 30 31 33 34 35 35 33 28 31 33 34 34 33 31 29 28 27 25 24 23 22 22
12 13 14 15 15 16 18 19 20 20 21 21 20 23 25 27 28 28 28 29 30 30 30 30 32 34 35 36 33 28 31 35 34 34 34 34 32 31 29 29 28 27 25 24 24
10 12 13 14 15 16 18 18 20 19 20 25 27 26 28 28 27 28 29 29 30 31 32 32 33 34 35 35 34 36 34 35 35 35 34 35 33 32 30 30 30 29 27 26 26
9 10 13 14 15 16 16 19 18 16 21 24 24 26 28 27 28 28 29 29 30 32 33 34 33 36 37 36 35 36 35 35 35 35 34 35 34 34 32 32 31 30 29 28 27
7 9 11 13 14 15 15 17 16 17 21 25 26 26 27 27 28 30 29 30 32 32 33 33 34 36 36 35 35 36 36 35 35 35 35 35 34 34 34 33 32 31 30 29 28
6 8 10 12 13 13 17 15 16 17 23 28 28 28 27 27 29 30 29 30 33 32 34 34 36 35 35 35 35 35 36 35 35 34 34 36 32 34 35 34 33 32 31 30 29
6 6 8 9 12 13 15 14 15 17 24 32 30 28 28 28 30 29 30 31 33 33 34 34 35 35 35 35 36 35 37 36 35 35 35 35 34 35 35 34 34 34 32 32 30
5 6 7 8 9 11 12 14 16 22 24 30 29 29 30 29 30 31 30 30 32 33 34 35 35 36 35 36 36 36 35 35 35 35 34 35 35 35 35 35 35 35 34 32 31
5 6 6 6 9 12 12 14 20 23 29 30 29 30 31 30 31 32 31 30 31 31 32 34 35 36 35 35 36 35 34 33 33 34 34 37 35 35 37 37 37 36 34 33 32
5 6 7 7 9 10 12 17 20 26 28 32 31 31 30 31 31 32 31 30 32 33 33 32 32 34 35 35 35 34 35 34 31 33 35 35 34 36 38 37 37 36 35 34 33
5 6 8 10 10 10 12 17 21 27 29 31 31 30 30 31 32 32 31 31 32 33 32 32 32 35 35 35 35 34 33 36 35 36 35 35 36 38 38 37 37 37 36 35 34
3 6 9 10 10 10 14 16 23 27 30 31 29 31 30 31 31 31 31 32 32 34 35 35 32 35 35 35 35 35 36 34 35 33 33 36 35 35 36 37 38 37 37 36 35
4 9 11 10 10 11 14 17 20 25 28 29 30 31 31 31 32 32 32 33 34 33 34 35 35 34 35 34 34 34 35 35 36 36 35 34 35 38 37 38 37 37 36 36 35
6 11 10 10 11 13 15 18 20 23 26 27 28 30 31 32 32 32 32 33 34 34 33 35 34 34 34 35 36 36 35 35 34 33 36 36 37 39 38 38 37 36 35 35 35
7 10 11 10 13 15 17 18 20 23 25 26 26 28 31 31 31 32 33 34 34 34 33 34 33 32 33 35 35 35 35 36 36 36 34 35 35 38 38 37 36 37 35 34 34
5 11 12 11 12 15 17 18 19 21 24 25 26 28 29 30 31 31 32 34 34 34 33 33 33 33 34 33 35 33 35 35 36 35 35 35 36 37 37 37 36 36 35 34 33
6 9 7 12 15 15 17 18 20 21 22 23 25 27 28 28 29 30 32 33 34 32 32 33 31 33 34 36 35 35 35 35 35 35 35 36 36 37 37 37 37 36 35 33 32
5 7 8 11 12 13 12 16 18 21 21 22 23 25 27 28 29 29 31 32 32 33 32 33 30 32 32 35 36 34 35 35 36 36 36 36 36 38 37 37 36 36 33 32 31
6 5 7 11 14 14 15 16 17 20 21 22 24 25 26 28 28 28 29 31 33 31 31 31 31 31 30 33 34 33 35 35 35 36 36 35 36 38 37 37 36 36 35 32 31
Height
1535 1534 1532 1531 1529 1528 1527 1525 1524 1523 1522 1520 1519 1518 1518 1516 1515 1514 1514 1513 1512 1511 1510 1511 1510 1510 1507 1499 1496 1492 1481 1494 1493 1493 1505 1508 1511 1517 1521 1530 1533 1535 1539 1547 1552
1534 1533 1532 1530 1528 1527 1526 1524 1523 1522 1521 1520 1518 1517 1517 1515 1513 1513 1514 1512 1511 1511 1511 1511 1507 1506 1500 1492 1489 1486 1483 1494 1492 1497 1505 1509 1510 1518 1519 1529 1537 1539 1544 1550 1554
1533 1532 1530 1529 1527 1525 1524 1523 1521 1520 1519 1519 1517 1516 1516 1515 1513 1508 1509 1510 1510 1510 1510 1510 1508 1505 1492 1490 1487 1481 1489 1494 1499 1503 1505 1511 1515 1516 1516 1520 1535 1541 1546 1550 1554
1531 1530 1529 1527 1525 1524 1522 1521 1519 1519 1518 1517 1516 1515 1515 1516 1511 1507 1507 1508 1508 1508 1509 1509 1507 1496 1487 1487 1490 1491 1495 1499 1504 1507 1507 1512 1514 1517 1516 1522 1532 1541 1546 1550 1555
1529 1527 1526 1525 1524 1522 1520 1518 1517 1516 1516 1515 1515 1514 1514 1514 1509 1506 1507 1506 1507 1508 1509 1508 1505 1497 1488 1491 1488 1494 1499 1503 1507 1510 1513 1513 1517 1522 1527 1532 1537 1543 1548 1552 1556
1528 1526 1524 1522 1521 1520 1518 1516 1515 1514 1513 1513 1513 1512 1512 1510 1506 1505 1506 1506 1507 1508 1508 1508 1504 1503 1495 1492 1489 1494 1500 1504 1509 1513 1514 1516 1520 1522 1532 1536 1541 1545 1549 1553 1556
1526 1524 1522 1520 1518 1517 1516 1514 1513 1512 1511 1510 1510 1510 1510 1505 1503 1504 1505 1506 1507 1508 1507 1506 1505 1503 1496 1493 1492 1496 1497 1500 1505 1507 1510 1510 1514 1525 1533 1537 1541 1546 1550 1553 1555
1524 1522 1519 1517 1515 1514 1513 1511 1510 1509 1509 1508 1508 1508 1503 1500 1500 1502 1502 1505 1505 1506 1506 1505 1505 1503 1494 1494 1490 1485 1483 1496 1500 1501 1508 1505 1522 1526 1532 1536 1540 1544 1548 1552 1555
1521 1520 1517 1515 1513 1511 1510 1508 1507 1506 1506 1506 1507 1507 1498 1493 1495 1496 1500 1502 1503 1504 1506 1505 1504 1498 1494 1492 1490 1489 1521 1504 1498 1499 1501 1499 1516 1522 1528 1531 1536 1541 1545 1548 1552
1519 1517 1515 1513 1510 1508 1506 1505 1504 1503 1503 1504 1505 1508 1492 1488 1489 1492 1495 1499 1500 1502 1504 1504 1501 1493 1486 1479 1496 1517 1505 1484 1495 1497 1499 1496 1509 1519 1524 1526 1530 1535 1541 1545 1548
1517 1514 1512 1511 1508 1506 1505 1505 1505 1501 1500 1492 1486 1486 1482 1485 1487 1489 1491 1496 1498 1499 1497 1497 1496 1492 1481 1482 1489 1475 1485 1486 1486 1492 1494 1492 1500 1511 1519 1521 1525 1530 1535 1540 1544
1515 1512 1510 1509 1507 1506 1505 1505 1504 1504 1496 1487 1484 1483 1481 1483 1482 1484 1488 1492 1492 1490 1491 1489 1492 1477 1472 1478 1483 1477 1483 1485 1488 1489 1494 1492 1496 1500 1512 1515 1519 1524 1530 1535 1539
1513 1510 1507 1507 1506 1505 1506 1506 1504 1504 1496 1477 1474 1475 1477 1482 1478 1476 1481 1483 1484 1485 1482 1482 1480 1474 1473 1476 1486 1478 1480 1485 1491 1489 1488 1490 1496 1495 1502 1509 1513 1519 1525 1530 1535
1511 1508 1506 1505 1507 1504 1505 1504 1504 1505 1489 1459 1457 1461 1469 1474 1472 1471 1476 1479 1476 1477 1475 1476 1472 1474 1475 1482 1480 1483 1473 1482 1488 1494 1498 1484 1519 1495 1493 1501 1508 1513 1519 1525 1530
1509 1506 1505 1506 1504 1505 1505 1503 1503 1504 1490 1426 1440 1451 1455 1461 1456 1465 1469 1473 1467 1469 1472 1473 1470 1471 1476 1480 1475 1478 1471 1481 1486 1492 1489 1486 1498 1487 1486 1498 1499 1505 1512 1518 1525
1507 1504 1502 1506 1505 1503 1504 1504 1504 1495 1471 1433 1436 1443 1446 1453 1453 1456 1464 1470 1469 1467 1465 1462 1466 1465 1471 1472 1471 1472 1482 1485 1486 1487 1501 1484 1486 1489 1485 1488 1491 1497 1504 1512 1519
1504 1502 1501 1501 1501 1502 1502 1503 1494 1470 1436 1425 1430 1435 1435 1441 1446 1445 1454 1461 1461 1474 1471 1464 1460 1462 1470 1473 1471 1475 1486 1509 1513 1506 1501 1469 1486 1481 1470 1475 1480 1488 1497 1504 1512
1500 1498 1494 1495 1498 1500 1502 1497 1473 1429 1425 1410 1417 1425 1431 1429 1436 1438 1448 1454 1452 1452 1459 1470 1479 1462 1464 1466 1472 1481 1482 1494 1522 1505 1489 1475 1495 1477 1463 1469 1477 1481 1489 1497 1505
1496 1494 1492 1492 1494 1496 1498 1475 1441 1420 1418 1410 1412 1420 1426 1422 1428 1431 1437 1441 1443 1442 1454 1463 1467 1455 1459 1465 1464 1475 1486 1467 1476 1467 1483 1476 1472 1462 1463 1470 1475 1478 1481 1489 1497
1493 1491 1484 1485 1488 1491 1485 1455 1435 1423 1408 1410 1416 1409 1419 1417 1422 1423 1432 1429 1435 1438 1439 1437 1462 1444 1454 1461 1461 1461 1467 1487 1472 1499 1499 1472 1478 1478 1470 1468 1466 1474 1477 1482 1491
1492 1485 1476 1480 1484 1482 1458 1448 1444 1424 1418 1412 1409 1406 1404 1407 1409 1411 1418 1420 1425 1433 1436 1431 1440 1446 1444 1455 1460 1464 1465 1467 1463 1469 1483 1492 1474 1448 1459 1459 1465 1469 1474 1479 1485
1491 1481 1474 1477 1478 1465 1455 1450 1446 1430 1421 1418 1414 1402 1399 1397 1402 1408 1413 1413 1416 1422 1433 1429 1435 1444 1445 1442 1446 1447 1458 1458 1474 1484 1462 1462 1459 1437 1449 1458 1466 1468 1473 1478 1484
1487 1474 1471 1473 1462 1452 1451 1447 1441 1431 1424 1421 1419 1409 1398 1396 1405 1402 1400 1403 1408 1415 1421 1428 1437 1453 1447 1444 1444 1447 1449 1450 1453 1454 1469 1477 1470 1445 1451 1458 1464 1465 1473 1477 1483
1489 1465 1462 1465 1461 1448 1439 1437 1436 1431 1426 1422 1416 1411 1405 1401 1395 1400 1402 1399 1404 1411 1418 1427 1430 1435 1440 1441 1439 1454 1446 1447 1449 1465 1462 1462 1453 1448 1452 1457 1462 1467 1472 1477 1482
1487 1471 1472 1456 1451 1448 1441 1431 1428 1427 1429 1427 1419 1410 1405 1408 1405 1401 1395 1396 1400 1410 1415 1421 1435 1430 1426 1418 1427 1437 1443 1443 1448 1448 1458 1450 1450 1446 1450 1456 1457 1464 1471 1478 1483
1490 1481 1471 1458 1456 1455 1451 1437 1427 1424 1427 1425 1422 1415 1410 1407 1403 1405 1397 1395 1396 1406 1414 1419 1434 1432 1434 1420 1417 1432 1432 1439 1436 1438 1442 1441 1444 1437 1446 1452 1459 1462 1471 1477 1482
1488 1485 1482 1462 1451 1451 1443 1442 1434 1427 1424 1422 1421 1418 1412 1406 1404 1403 1401 1395 1394 1405 1413 1420 1425 1433 1443 1426 1426 1437 1420 1427 1433 1431 1437 1448 1442 1438 1443 1451 1455 1459 1464 1474 1478
Wind_Speed
12 12 12 11 10 10 9 9 10 10 10 11 11 10 10 11 10 10 6 5 6 7 6 2 5 6 7 12 7 11 3 9 13 13 13 10 11 8 17 14 9 3 19 22 23
13 12 12 12 12 11 11 10 10 10 10 10 11 12 11 12 13 14 12 6 5 4 2 5 8 5 14 5 4 10 12 10 10 12 9 7 13 11 13 13 16 19 22 24 22
13 14 13 13 13 13 12 12 11 11 10 10 11 11 10 11 13 12 9 9 9 8 7 9 10 8 16 5 5 18 15 12 13 12 12 13 10 7 9 15 13 20 26 22 20
14 14 15 14 14 14 13 13 12 11 11 10 10 10 9 6 7 1 8 11 11 11 11 10 9 16 4 9 1 14 15 14 13 10 10 14 11 9 17 17 18 21 23 22 19
16 16 15 15 16 15 14 14 14 13 11 10 10 9 8 11 20 14 7 8 13 14 13 11 11 10 5 9 9 14 12 15 13 12 12 11 14 15 18 18 20 22 20 20 18
18 17 17 16 16 16 15 15 15 14 13 12 10 9 8 18 10 8 9 6 11 14 13 12 9 6 5 2 3 15 13 15 16 14 14 15 13 13 15 18 20 19 18 18 17
19 19 18 17 17 17 16 16 16 15 14 12 11 9 12 20 8 10 14 9 11 14 15 11 8 10 1 5 12 13 13 14 13 11 7 17 12 14 15 16 18 15 15 15 16
19 20 19 19 18 17 16 16 16 14 13 12 11 8 14 9 21 17 13 14 13 13 14 8 9 11 12 9 14 18 21 15 13 9 7 10 12 14 16 16 16 17 16 16 16
22 20 20 19 19 18 16 16 15 14 12 11 7 8 18 14 19 19 18 19 14 14 13 9 10 17 7 15 15 1 4 15 12 3 5 9 13 15 16 15 16 16 16 16 17
23 23 20 20 19 18 15 14 13 13 11 8 11 8 22 17 13 19 21 21 17 16 14 13 12 13 13 18 10 25 24 12 15 11 6 4 15 16 16 14 15 16 15 15 16
25 23 22 18 18 17 13 6 8 8 19 18 14 20 1 11 12 18 23 24 19 20 18 21 14 16 20 9 9 11 3 12 10 8 6 2 17 14 17 14 15 15 16 16 16
25 26 23 18 15 14 8 6 3 6 12 22 28 22 18 10 15 20 26 27 25 21 23 16 20 20 19 18 14 4 6 8 8 8 8 10 7 17 17 15 16 16 17 16 16
23 25 25 17 13 7 8 6 5 8 10 23 28 31 26 18 19 25 31 33 25 25 25 22 23 21 18 8 12 13 13 12 6 5 10 5 10 14 18 17 15 16 16 17 18
22 23 24 18 4 9 4 5 7 6 7 18 27 25 31 26 24 22 32 36 19 27 26 23 23 21 10 15 17 16 7 4 4 9 4 9 2 14 16 15 16 18 18 19 19
21 21 21 14 11 5 4 8 8 3 7 9 25 15 29 34 14 29 31 35 25 23 22 25 24 19 21 21 17 10 9 8 6 8 11 14 8 15 16 16 17 20 21 20 22
21 20 20 9 13 16 13 9 4 8 17 8 14 16 25 35 32 31 30 36 32 22 26 25 29 20 20 19 18 18 6 7 11 11 12 12 12 13 15 16 17 20 24 23 23
21 20 19 16 12 3 8 7 8 14 15 15 21 20 27 21 30 26 29 29 25 23 25 26 28 21 20 22 21 13 11 10 11 11 9 17 10 4 15 12 17 21 24 26 25
23 22 20 18 17 13 10 10 17 18 27 8 22 22 28 27 32 29 29 28 29 29 19 22 25 20 23 25 20 19 20 13 15 12 11 7 7 6 10 19 12 21 26 26 27
24 19 18 16 16 15 17 17 18 20 30 13 19 22 25 26 30 23 28 31 31 29 21 23 29 25 25 21 25 18 21 23 22 17 8 14 12 16 10 11 10 14 22 29 28
19 19 23 18 15 16 15 28 21 29 14 30 18 20 24 28 32 31 30 32 33 31 27 20 21 24 25 21 30 26 20 21 17 15 13 9 16 10 16 15 13 14 20 26 30
15 13 7 9 15 21 18 27 29 30 25 18 25 20 22 27 30 28 29 25 33 33 28 28 19 24 23 23 23 22 20 23 20 15 11 12 12 12 14 12 7 9 22 24 28
15 11 6 9 16 19 18 28 35 34 23 15 13 22 21 23 26 29 31 31 40 28 34 28 11 17 24 22 24 23 22 25 15 18 15 11 3 19 15 8 7 12 18 23 24
16 20 13 9 13 14 21 27 32 30 27 20 13 18 23 19 23 27 25 28 28 33 32 25 17 17 22 23 23 24 25 23 25 18 15 13 10 8 10 5 8 11 19 23 24
12 6 14 15 21 19 19 24 28 36 24 27 18 22 18 19 15 20 28 29 33 24 34 30 21 20 18 21 22 28 27 28 22 17 15 17 15 16 11 9 13 9 18 21 22
8 7 5 6 7 14 16 16 24 28 21 28 22 23 18 17 19 18 23 23 24 20 21 27 28 22 23 21 25 24 28 26 28 25 21 19 16 12 7 8 11 16 16 20 21
8 6 15 18 8 10 5 15 14 22 25 26 20 18 19 18 21 15 18 24 23 24 21 23 21 27 24 27 23 29 30 32 29 28 23 22 16 7 15 10 15 13 15 18 21
10 12 11 9 10 11 13 16 16 16 24 29 20 20 20 13 9 3 13 10 20 21 22 24 20 21 24 24 22 22 26 28 30 27 24 23 19 16 9 11 14 17 14 17 21
Wind_Direction
332 332 333 333 331 331 329 329 331 330 328 322 318 315 310 303 302 300 295 263 245 256 295 270 259 276 276 269 256 284 317 44 30 67 104 139 108 67 109 111 89 57 143 144 140
319 320 321 321 320 319 318 318 320 318 319 316 311 310 308 300 295 276 256 246 255 255 220 244 285 283 260 264 258 220 68 63 49 85 107 85 111 134 134 114 106 106 124 142 145
311 312 312 312 310 309 309 309 309 309 310 310 307 306 306 304 300 254 225 244 242 251 238 277 294 288 270 278 338 38 73 73 73 88 96 108 111 161 131 138 146 141 141 145 148
309 306 307 308 305 303 301 300 297 298 301 302 301 297 295 287 261 231 246 238 232 248 253 273 282 271 299 101 239 86 70 81 96 113 110 90 110 91 56 87 132 142 147 150 156
314 308 304 304 303 300 297 294 292 291 293 293 293 286 281 248 251 264 272 242 221 229 241 259 278 306 32 111 138 99 92 91 92 91 101 111 83 88 94 110 128 139 149 157 160
318 314 308 302 299 296 294 291 288 288 288 288 284 276 262 255 240 240 235 255 207 217 241 247 278 333 284 84 327 109 118 114 106 118 125 116 128 106 108 123 131 146 153 162 169
316 315 314 307 299 295 292 290 287 284 283 282 279 270 255 236 231 237 231 228 222 221 234 242 266 281 294 139 125 137 138 133 138 132 151 145 117 105 133 138 140 147 156 167 176
313 312 312 310 304 297 291 287 286 282 279 274 274 267 260 247 235 240 219 221 224 223 227 247 247 270 270 119 189 190 177 142 133 180 145 249 112 139 151 152 153 159 166 175 183
321 311 309 310 305 300 294 288 285 279 274 264 271 244 258 220 232 223 218 214 215 215 217 244 237 246 183 192 197 10 357 185 130 156 131 230 124 153 170 163 160 168 170 175 180
320 317 310 307 308 305 297 292 285 276 265 250 249 256 243 228 221 209 209 205 205 204 211 223 225 229 216 217 215 135 239 123 130 153 233 129 112 155 176 175 164 167 170 177 178
320 314 313 309 306 312 306 307 272 238 215 224 223 211 94 196 189 200 195 194 202 205 210 202 218 220 209 202 225 232 29 131 115 112 239 54 134 158 172 182 171 171 172 177 180
320 316 309 313 306 310 323 279 336 316 290 243 246 242 241 214 212 205 188 192 199 205 211 195 221 219 228 158 234 252 199 134 93 122 273 152 180 152 172 188 173 181 176 179 174
322 315 311 312 312 330 297 283 310 325 258 261 234 227 221 216 228 196 189 194 197 208 203 213 208 229 222 168 222 216 210 135 95 167 212 250 179 167 171 182 178 179 182 184 180
319 316 312 314 309 314 302 257 313 311 269 253 211 225 216 212 225 216 198 195 195 209 212 219 213 217 197 218 217 217 225 73 228 243 244 183 306 183 170 184 181 182 183 185 186
312 313 310 325 285 301 294 308 303 258 262 219 186 206 199 199 174 208 195 205 215 207 214 212 222 213 198 214 213 251 148 199 239 259 268 186 243 155 173 187 186 187 184 188 186
308 308 308 320 285 267 288 296 272 226 226 173 146 187 188 195 219 181 197 209 215 217 218 224 215 219 216 220 229 236 185 230 248 248 247 247 243 173 173 186 192 189 184 187 187
304 302 296 287 241 221 281 253 213 230 216 218 180 194 197 188 205 176 191 198 205 207 211 216 224 208 222 221 219 232 211 221 222 225 244 201 213 226 152 179 186 187 191 184 188
301 299 296 271 257 258 262 224 229 207 222 219 187 195 204 190 199 187 191 197 207 208 201 202 216 199 217 232 211 214 220 226 209 221 184 203 222 203 146 160 171 188 192 191 187
305 305 281 256 246 229 226 217 217 231 201 204 196 194 200 203 196 185 198 200 200 207 214 203 215 195 218 211 236 196 223 244 249 229 259 177 201 229 152 185 189 198 192 191 194
309 299 274 236 221 210 222 234 229 240 236 225 213 204 199 202 198 191 199 202 202 207 217 195 209 209 198 213 224 232 204 227 245 261 239 180 174 216 184 206 194 189 208 195 195
309 279 216 190 203 218 224 224 235 241 244 241 227 217 221 201 198 203 205 201 206 200 216 234 210 207 186 204 205 210 226 212 237 237 233 243 187 178 171 188 152 214 202 198 197
288 269 176 204 212 227 230 234 236 242 260 242 275 262 213 211 203 219 205 208 197 203 209 223 213 225 195 197 222 205 216 203 224 212 257 275 308 171 156 173 194 158 183 191 197
282 270 242 224 234 231 226 237 241 237 244 235 237 255 255 229 211 210 219 208 202 207 200 204 226 215 192 198 206 219 206 215 220 241 221 243 137 126 138 157 162 168 177 184 191
291 272 219 212 245 275 239 218 228 237 240 242 244 248 242 240 244 210 222 206 198 210 206 200 216 231 211 206 196 214 209 218 221 220 234 213 249 147 161 194 157 211 176 181 186
276 302 198 264 199 252 257 282 220 220 225 244 236 247 225 227 223 223 212 206 197 197 194 199 221 219 245 214 205 204 217 222 223 228 226 231 211 236 205 191 208 175 173 181 186
300 318 324 287 245 292 237 255 264 213 211 224 231 229 241 228 220 204 238 213 195 184 206 201 218 227 227 243 205 210 208 221 227 225 236 245 243 229 198 204 215 155 168 185 191
321 317 302 290 257 226 225 235 251 250 220 231 227 240 234 241 340 20 313 263 201 201 195 202 213 208 222 225 236 242 221 211 226 225 230 236 237 255 206 204 225 223 193 200 199